Location: Amon Carter Post Office
(32.8281°N, 97.0484°W)
Time: 11:39:12
(UTC+00:00)

Sich 1 - Pass Details

Date: 05 July 2022
Orbit: 593 x 623 km, 82.5° (Epoch: 09 August)

Event Time Altitude Azimuth Distance (km) Brightness Sun altitude
Exits shadow 10:53:48 - 251° (WSW) 2,158 5.2 -6.6°
Reaches altitude 10° 10:54:58 10° 265° (W) 1,944 5.1 -6.4°
Maximum altitude 10:56:31 12° 286° (WNW) 1,832 5.1 -6.1°
Drops below altitude 10° 10:58:04 10° 307° (NW) 1,942 5.4 -5.8°
Sets 11:01:45 0° 340° (NNW) 2,844 6.6 -5.2°
